Change the Weather History Date:

Wednesday, March 26, 2014

  Actual Average Record
Temperature  
Mean Temperature 45 °F 62 °F  
Max Temperature 59 °F 74 °F 90 °F (1936)
Min Temperature 31 °F 49 °F 29 °F (1979)
Degree Days  
Heating Degree Days 20 5  
Month to date heating degree days 239 187  
Since 1 July heating degree days 1835 1747  
Cooling Degree Days 0 1  
Month to date cooling degree days 2 26  
Year to date cooling degree days 6 35  
Moisture  
Dew Point 20 °F    
Average Humidity 42    
Maximum Humidity 66    
Minimum Humidity 17    
Precipitation  
Precipitation 0.00 in - 1.79 in (2005)
Sea Level Pressure  
Sea Level Pressure 30.31 in    
Wind  
Wind Speed 3 mph (North)    
Max Wind Speed 15 mph    
Max Gust Speed 23 mph    
Visibility 10 miles    
Events      
T = Trace of Precipitation, MM = Missing Value Source: NWS Daily Summary

Daily Weather History Graph

Daily Weather History Graph

Search for Another Location

Airport or City:

Trip Planner

Search our weather history database for the weather conditions in past years. The results will help you decide how hot, cold, wet, or windy it might be!

Date:

Astronomy

Mar. 26, 2014 Rise Set
Actual Time 7:32 AM EDT 7:52 PM EDT
Civil Twilight 7:08 AM EDT 8:16 PM EDT
Nautical Twilight 6:40 AM EDT 8:45 PM EDT
Astronomical Twilight 6:11 AM EDT 9:14 PM EDT
Moon 4:25 AM EDT (3/26) 3:44 PM EDT (3/26)
Length of Visible Light 13h 08m
Length of Day
12h 19m
Waning Crescent, 22% of the Moon is Illuminated
Mar 26
Waning Crescent
Mar 30
New
Apr 7
First Quarter
Apr 15
Full
Apr 22
Last Quarter

Hourly Weather History & Observations

Time (EDT) Temp. Windchill Dew Point Humidity Pressure Visibility Wind Dir Wind Speed Gust Speed Precip Events Conditions
12:53 AM 43.0 °F 38.2 °F 19.9 °F 40% 30.23 in 10.0 mi North 8.1 mph 17.3 mph N/A   Clear
1:53 AM 41.0 °F 38.0 °F 21.0 °F 45% 30.25 in 10.0 mi North 4.6 mph - N/A   Clear
2:53 AM 39.9 °F - 21.9 °F 49% 30.25 in 10.0 mi Calm Calm - N/A   Clear
3:53 AM 37.9 °F 33.5 °F 21.0 °F 51% 30.25 in 10.0 mi North 5.8 mph - N/A   Clear
4:53 AM 37.0 °F 34.5 °F 21.0 °F 52% 30.27 in 10.0 mi NNW 3.5 mph - N/A   Clear
5:53 AM 32.0 °F - 23.0 °F 69% 30.30 in 10.0 mi Calm Calm - N/A   Clear
6:53 AM 32.0 °F - 23.0 °F 69% 30.33 in 10.0 mi Calm Calm - N/A   Clear
7:53 AM 32.0 °F - 23.0 °F 69% 30.35 in 10.0 mi Calm Calm - N/A   Clear
8:53 AM 37.0 °F 33.3 °F 23.0 °F 57% 30.38 in 10.0 mi North 4.6 mph - N/A   Clear
9:53 AM 42.1 °F 35.7 °F 15.1 °F 34% 30.40 in 10.0 mi North 11.5 mph 20.7 mph N/A   Clear
10:53 AM 44.1 °F 37.4 °F 15.1 °F 31% 30.40 in 10.0 mi North 13.8 mph 19.6 mph N/A   Clear
11:53 AM 48.0 °F - 15.1 °F 27% 30.39 in 10.0 mi North 9.2 mph - N/A   Clear
12:53 PM 51.1 °F - 12.9 °F 22% 30.37 in 10.0 mi NNE 9.2 mph 18.4 mph N/A   Clear
1:53 PM 54.0 °F - 14.0 °F 21% 30.36 in 10.0 mi Variable 4.6 mph - N/A   Clear
2:53 PM 55.0 °F - 12.9 °F 19% 30.34 in 10.0 mi Variable 3.5 mph - N/A   Clear
3:53 PM 57.0 °F - 14.0 °F 18% 30.30 in 10.0 mi Variable 4.6 mph - N/A   Clear
4:53 PM 57.9 °F - 15.1 °F 19% 30.28 in 10.0 mi Variable 3.5 mph - N/A   Clear
5:19 PM 57.2 °F - 15.8 °F 20% 30.28 in 10.0 mi NNE 5.8 mph - N/A   Clear
5:53 PM 57.9 °F - 15.1 °F 19% 30.29 in 10.0 mi Calm Calm - N/A   Clear
6:53 PM 55.9 °F - 15.1 °F 20% 30.28 in 10.0 mi Calm Calm - N/A   Clear
7:53 PM 53.1 °F - 21.9 °F 30% 30.28 in 10.0 mi Calm Calm - N/A   Clear
8:53 PM 48.9 °F - 27.0 °F 43% 30.29 in 10.0 mi Calm Calm - N/A   Clear
9:53 PM 46.0 °F - 30.9 °F 56% 30.31 in 10.0 mi Calm Calm - N/A   Clear
10:53 PM 44.1 °F - 32.0 °F 63% 30.31 in 10.0 mi Calm Calm - N/A   Clear
11:53 PM 42.1 °F - 30.9 °F 65% 30.30 in 10.0 mi Calm Calm - N/A   Clear